User: anonymous   Login
Location: Munkebjergskolens Observatorium
(55.3864°N, 10.3987°E)
Time: 15:44:49
(UTC+02:00)
Language:

LilacSat-2 - Orbit

View from above orbital plane
View from above orbital plane
View from above satellite
View from above satellite

Ground track
Ground track

The orbit data is extracted from the following two-line orbital elements,

1 40908U 15049K   23091.17577873  .00009266  00000-0  44878-3 0  9997
2 40908  97.5275  94.5035 0016288  97.1203 333.8781 15.18656668416108
Epoch (UTC): 01 April 2023 04:13:07
Eccentricity: 0.0016288
inclination: 97.5275°
perigee height: 498 km
apogee height: 521 km
right ascension of ascending node: 94.5035°
argument of perigee: 97.1203°
revolutions per day: 15.18656668
mean anomaly at epoch: 333.8781°
orbit number at epoch: 41610

The dashed part of the orbit path shows where the satellite is in the earth's shadow,  

DLR